Showing default

AO-95, 43770

Orbit data source: Space-Track

AO-95, 43770 is a payload satellite owned by AMSAT-NA (US) in SSO that was launched on Mon, 03 Dec 2018 UTC via an FALCON 9 launch vehicle from the Air Force Western Test Range (AFWTR). Payload-class satellites include a variety of spacecraft equipped with specific instruments for various scientific and technological missions. These include communications satellites like Starlink; space stations such as the ISS; scientific satellites like the Hubble; Earth observation satellites from companies like Planet Labs, Umbra, and HawkEye 360; GPS; miniature CubeSats for education and research; and military/defense satellites.

Loading next visibility...
Identifier
43770, 2018-099N
Orbit
SSO
Country
Flag of USUS
Related business
Manufacturer
AMSAT-NA
Mission
Operational Amateur Technology
Bus & Motor
CUBESAT 1U, Unknown motor
Mass
1 kg wet, 1 kg dry
Launch date (UTC)
2018-12-03 (7 years ago)
Launch vehicle
FALCON 9
Launch site
Air Force Western Test Range (AFWTR)
Object type
Payload
Rocket body
Debris
Shape & HBR
Box, 0.1 m
Radar Cross Section
0.015 m², Small (<0.1 m²)

Expand to show TLE details & history
Last TLE update: 16 hours ago

TLE from 16 hours ago
0 AO-95
1 43770U 18099N   26134.77357054  .00007765  00000-0  30480-3 0  9995
2 43770  97.4410 195.1590 0010455 105.6252 254.6141 15.25948476408123
Epoch: 2026-05-14T18:33Z
TLE epoch observation values (Epoch: 2026-05-14T18:33:56.494Z)
Latitude
-0.00001°
Longitude
44.15918°
Altitude
492.948 km
Speed
7.617 km/s
True Right ascension
13h 00m 38s
True Declination
0° 00' 00"
Sunlit
Object was in full shadow at epoch
Visualization orbit readout
Latitude
Unknown
Longitude
Unknown
Altitude
Unknown
Speed
Unknown
Apparent Right ascension
Unknown
Apparent Declination
Unknown
Sunlit
N/A
Visualization observer readout
Local Sidereal Time
18:57:09
Azimuth
Unknown
Elevation
Unknown
Doppler factor
Unknown
Orbital elements
Apogee altitude
492.074 km
Perigee altitude
477.723 km
Semi-major axis
6,863.035 km
Eccentricity
0.00105
Inclination
97.441°
RAAN
195.159°
Arg. of periapsis
105.6252°
True anomaly
254.49863°
Mean anomaly
254.6141°
Eccentric anomaly
254.55636°
Mean motion
3.81741 °/min
Orbital period
94.3 mins
BSTAR
0.0003048
Loading maneuver chart data...
Computing Atmospheric mass density...
Loading historical data...
Loading historical data...
Loading historical data...
Loading historical data...
Loading historical data...
Loading historical data...
Loading historical data...

Documentation

Showing up to 5 results
|